Overview Statistics Trail Chart Weather Telemetry Raw packets
 

This is the latest recevied weather packets stored in our database for station/object VE8SKI. If no packets are shown the sender has not sent any weather packets the latest 10 day(s).

<< 11 12 13 14 15 16 17 >>
Time Temp. Humidity Pressure Rain* Wind** Luminosity Snow
1778021916 6.11° C 52% 1019.7 hPa 0 mm 3.13 m/s, 7° - -
1778021614 6.11° C 53% 1019.7 hPa 0 mm 3.13 m/s, 204° - -
1778021315 6.11° C 53% 1019.8 hPa 0 mm 4.02 m/s, 211° - -
1778021015 6.11° C 54% 1019.8 hPa 0 mm 3.13 m/s, 212° - -
1778020716 6.11° C 54% 1019.9 hPa 0 mm 2.68 m/s, 245° - -
1778020416 6.11° C 55% 1020 hPa 0 mm 2.68 m/s, 228° - -
1778020117 5.56° C 55% 1020.1 hPa 0 mm 4.02 m/s, 236° - -
1778019815 5.56° C 54% 1020.2 hPa 0 mm 3.13 m/s, 172° - -
1778019515 5.56° C 55% 1020.2 hPa 0 mm 3.13 m/s, 203° - -
1778019216 6.11° C 56% 1020.3 hPa 0 mm 1.34 m/s, 266° - -
1778018916 5.56° C 55% 1020.4 hPa 0 mm 3.13 m/s, 195° - -
1778018617 5.56° C 55% 1020.4 hPa 0 mm 3.13 m/s, 87° - -
1778018317 5.56° C 55% 1020.5 hPa 0 mm 3.13 m/s, 188° - -
1778018015 5.56° C 55% 1020.6 hPa 0 mm 3.58 m/s, 232° - -
1778017715 5.56° C 54% 1020.7 hPa 0 mm 3.13 m/s, 249° - -
1778017416 6.11° C 54% 1020.8 hPa 0 mm 2.68 m/s, 225° - -
1778017116 5.56° C 55% 1020.8 hPa 0 mm 2.68 m/s, 298° - -
1778016817 5.56° C 56% 1020.9 hPa 0 mm 3.13 m/s, 312° - -
1778016517 5.56° C 56% 1020.9 hPa 0 mm 2.24 m/s, 243° - -
1778016215 5.56° C 57% 1021 hPa 0 mm 3.13 m/s, 260° - -
1778015916 5.56° C 56% 1021.2 hPa 0 mm 3.13 m/s, 205° - -
1778015616 5° C 56% 1021.2 hPa 0 mm 4.02 m/s, 174° - -
1778015317 5.56° C 55% 1021.2 hPa 0 mm 2.68 m/s, 226° - -
1778015017 5° C 56% 1021.2 hPa 0 mm 3.13 m/s, 231° - -
1778014718 5.56° C 56% 1021.2 hPa 0 mm 3.13 m/s, 281° - -

* Rain latest hour (hover to see other rain measurements)
** Current wind speed in m/s (hover to see current wind gust speed)